Wind_Speed
27 26 25 24 24 24 24 25 25 24 24 25 26 25 23 21 20 20 19 19 18 16 14 13 11 10 10 10 10 10 10 11 10 11 11 12 13 14 15 16 17 17 18 19
28 26 25 25 23 24 24 24 24 25 27 27 29 27 26 25 24 21 20 20 20 18 17 15 13 12 11 11 10 10 11 11 12 12 12 13 13 14 15 16 17 18 19 21
28 26 27 27 25 24 24 25 26 27 30 31 31 32 30 29 27 25 23 22 21 20 18 16 15 15 13 12 12 12 12 11 12 13 13 14 14 15 16 17 18 19 20 21
28 28 30 26 27 29 29 29 30 32 33 33 33 33 32 31 30 27 25 24 22 22 20 18 17 17 15 14 13 13 13 13 13 13 13 15 16 16 17 18 19 20 20 20
29 28 28 26 28 29 30 31 33 34 34 34 34 33 33 33 31 28 26 26 25 23 22 21 19 18 17 16 16 15 14 15 15 16 16 16 17 17 18 19 19 20 21 22
27 28 27 26 28 28 29 30 33 33 32 33 33 33 33 33 31 28 27 27 26 25 24 23 22 21 20 18 18 17 17 17 17 18 18 18 18 18 19 19 20 21 22 24
26 27 27 28 29 29 30 31 31 30 31 31 32 32 32 32 31 29 28 27 26 26 25 24 24 24 22 20 19 19 19 19 19 19 18 19 20 20 21 21 22 24 24 25
25 26 27 29 29 30 31 31 31 30 29 30 30 30 30 30 30 29 29 28 27 27 26 26 25 25 24 23 22 22 21 22 22 21 21 23 24 24 24 25 26 27 27 28
26 28 29 30 30 29 29 29 30 30 29 29 29 29 30 30 29 29 29 28 28 28 28 28 27 26 26 25 25 24 24 24 24 24 25 25 26 27 27 28 28 29 30 31
27 27 29 29 29 29 30 30 30 30 29 29 29 29 29 30 28 28 28 28 29 28 28 28 28 28 27 27 26 26 26 26 26 26 26 27 28 28 29 30 31 32 33 34
24 25 26 26 27 27 27 27 28 28 28 28 28 28 29 28 28 29 29 28 28 29 29 29 28 27 27 26 26 26 26 26 26 27 27 28 28 29 31 32 33 34 35 36
23 24 24 23 23 24 24 24 25 26 27 27 27 28 28 28 28 29 29 28 28 29 29 28 27 26 26 26 26 26 26 26 26 27 28 29 30 31 32 33 34 35 35 36
22 21 20 20 21 21 20 20 20 21 23 24 25 26 26 27 26 26 25 25 25 25 25 25 25 24 24 25 25 26 26 26 27 28 29 31 31 32 33 34 35 35 37 38
18 17 17 18 17 17 17 18 19 19 20 21 22 23 24 23 23 23 23 23 23 23 23 23 23 23 23 23 24 25 25 26 27 29 30 32 33 33 34 36 36 37 38 40
15 14 14 15 14 14 15 16 17 16 17 18 19 20 20 19 19 19 20 21 20 20 21 21 21 21 20 21 23 25 26 27 29 30 32 33 34 35 36 37 38 39 40 41
12 12 11 11 11 12 12 12 13 13 14 15 15 15 15 16 16 16 16 16 17 17 18 18 19 20 21 22 24 26 28 29 30 31 32 33 34 35 36 37 39 40 41 42
10 10 10 9 9 10 11 11 11 11 11 11 11 12 12 12 13 13 14 15 15 16 16 17 18 20 21 23 25 27 28 29 29 30 31 32 34 35 36 38 39 40 41 42
10 10 9 8 7 7 8 8 8 8 8 8 8 9 10 10 11 11 12 12 13 14 16 18 19 21 22 23 24 26 27 28 29 30 31 33 34 35 37 38 40 41 42 43
10 9 8 7 7 7 7 7 7 7 8 8 8 8 9 10 10 10 11 13 14 15 16 17 18 20 21 22 24 26 27 28 30 31 33 34 35 37 38 40 41 41 42 42
10 8 7 6 6 6 6 6 6 6 6 6 7 7 7 8 9 10 11 12 13 14 16 17 19 20 21 23 24 26 28 29 31 33 34 35 36 38 39 39 40 40 41 41
10 9 9 9 8 7 6 5 5 5 4 4 4 5 6 7 9 10 12 13 14 15 17 19 20 22 23 25 27 28 30 31 33 34 35 36 37 38 38 38 38 38 38 38
10 10 10 9 8 7 7 6 6 6 6 6 6 7 8 9 10 11 13 14 16 18 19 21 23 25 26 28 29 30 32 33 34 34 35 35 35 35 35 35 35 35 34 34
10 10 9 8 7 7 7 6 6 6 6 7 8 9 10 11 13 14 16 18 19 21 23 24 26 27 29 30 31 31 32 33 33 33 33 33 33 33 33 33 32 31 31 30
9 8 7 6 6 6 6 6 6 7 8 9 10 11 13 14 16 18 19 21 22 24 25 27 28 29 30 30 31 31 31 31 31 32 32 32 31 31 30 30 29 29 28 28
9 8 8 7 7 6 6 7 8 9 10 12 13 15 16 18 19 21 22 24 25 26 27 28 29 30 30 30 30 30 30 30 30 30 30 30 29 29 28 28 28 27 26 25
10 10 9 9 9 9 10 10 11 13 14 15 17 18 19 21 22 24 25 26 27 28 29 30 30 30 30 30 30 30 30 29 29 29 28 27 26 26 26 25 24 24 23 23
11 10 10 11 12 12 13 13 15 16 17 18 20 21 23 24 25 26 27 28 29 29 29 29 29 29 29 29 28 28 28 27 27 26 25 25 24 23 23 23 23 22 22 22
Wind_Direction
230 236 243 241 234 232 234 238 245 249 251 257 261 265 270 270 270 272 275 275 276 280 281 280 280 276 274 272 267 255 250 251 252 246 243 241 237 233 235 239 243 248 251 253
237 237 244 249 249 246 244 244 246 253 256 255 257 261 263 266 269 270 271 271 272 274 276 274 271 275 274 272 265 257 253 253 253 248 246 244 242 240 241 245 250 255 258 259
239 241 244 248 251 253 251 250 250 251 254 255 257 258 260 263 265 268 267 266 266 268 270 270 267 269 269 268 265 261 258 254 252 250 247 246 248 249 250 253 256 257 258 260
244 245 247 247 248 248 250 250 251 252 252 254 256 258 259 261 263 262 261 261 261 261 264 265 266 265 264 264 263 261 259 258 256 255 253 250 251 253 258 261 261 261 263 266
248 250 253 251 250 248 249 251 252 253 254 255 256 257 258 258 259 258 258 259 259 257 259 261 263 263 261 263 262 262 261 258 255 256 257 258 257 259 261 264 267 268 269 270
249 251 253 252 252 251 252 254 254 255 255 254 254 255 255 256 257 257 256 257 258 257 256 257 257 259 259 262 262 260 259 259 259 261 262 260 261 264 266 267 270 273 273 274
250 250 252 252 252 253 255 255 258 257 257 255 253 253 253 253 252 252 254 254 255 254 254 255 254 256 256 259 262 262 260 262 264 266 267 266 268 270 270 272 274 275 277 278
252 251 250 252 252 253 256 258 258 257 257 255 252 251 250 249 249 249 251 251 251 252 252 254 254 256 258 262 264 264 264 264 265 267 270 270 270 272 273 275 276 277 278 279
253 253 252 253 254 255 256 256 256 255 256 253 250 247 248 247 246 247 249 250 249 249 251 252 254 256 258 262 264 266 266 267 268 270 274 275 275 274 275 276 277 279 281 282
255 256 257 257 258 257 257 258 256 253 253 252 250 248 247 246 246 246 246 247 248 248 250 252 254 256 258 262 264 268 268 268 271 273 275 277 276 275 275 277 281 282 284 285
257 258 260 260 259 258 259 259 255 251 251 250 249 247 246 245 245 245 245 247 248 251 253 255 255 254 257 261 264 266 268 269 272 273 275 276 276 278 280 282 284 286 285 286
260 262 263 260 257 258 259 257 252 250 249 248 246 245 244 243 243 244 243 245 248 250 252 254 255 256 258 261 264 265 267 271 274 276 278 279 279 281 282 283 285 286 287 288
262 265 265 263 262 262 260 256 253 249 244 242 241 242 242 241 241 241 242 245 248 250 251 252 253 255 257 260 263 266 268 272 276 279 280 281 281 282 284 285 287 287 288 289
264 268 267 263 261 257 256 255 252 248 245 241 238 238 239 238 238 241 244 247 248 249 250 252 255 257 261 264 268 271 273 276 280 282 282 281 282 285 286 287 287 288 289 289
260 261 261 258 253 249 250 250 246 244 241 238 235 235 236 237 238 240 242 245 246 249 250 251 255 259 264 269 272 274 277 280 281 283 284 284 285 287 287 288 289 290 291 292
256 256 255 247 242 239 239 241 240 237 231 228 227 229 229 231 234 236 239 242 248 251 253 257 262 267 272 276 278 279 280 281 283 284 285 286 288 289 291 292 293 295 296 296
248 248 242 242 236 228 227 226 228 229 224 218 217 220 224 228 230 234 238 244 250 256 262 267 271 274 277 280 281 283 285 286 288 289 291 292 294 295 296 296 297 298 298 297
243 243 241 245 237 222 213 212 213 210 203 203 210 219 224 230 236 242 247 252 260 266 270 273 275 278 282 284 286 287 289 291 293 295 296 297 297 297 297 298 298 299 298 298
235 234 232 222 211 208 209 209 208 206 206 207 213 223 229 233 238 249 261 268 271 274 278 280 283 285 288 291 293 295 296 298 298 298 298 298 299 299 299 299 300 300 299 299
223 217 213 209 205 205 211 209 208 209 212 219 225 234 245 252 253 258 267 275 282 287 290 292 293 294 297 299 299 300 300 300 300 300 300 300 300 301 301 301 301 300 300 301
212 210 209 202 200 205 212 214 212 223 232 238 249 262 266 271 271 276 284 290 292 295 297 299 300 301 301 302 302 301 301 301 301 301 301 301 302 302 302 302 302 302 303 303
208 206 205 203 205 217 224 228 233 240 246 252 266 276 282 285 289 293 296 299 301 302 303 304 304 304 304 303 303 303 303 302 302 302 302 303 303 303 303 304 304 305 305 306
199 199 203 209 214 219 225 231 238 246 256 266 276 285 293 298 300 302 302 303 303 303 304 305 305 305 305 305 305 304 304 304 303 303 304 304 305 305 305 305 306 307 308 308
201 206 214 220 224 231 238 246 256 264 273 281 287 292 296 298 299 300 301 302 303 304 305 306 306 306 306 306 306 306 305 305 305 305 306 306 306 306 306 306 307 308 309 309
213 220 226 231 236 245 256 265 272 278 282 285 289 293 296 299 301 302 303 304 305 306 306 306 306 306 306 306 306 306 306 307 307 307 306 306 306 307 307 308 308 309 309 310
220 226 235 243 250 257 262 268 275 281 285 288 292 295 298 300 301 303 304 305 305 305 306 306 306 306 306 306 307 307 307 307 307 308 308 307 307 307 308 309 309 310 311 311
227 234 244 253 260 266 273 279 283 287 290 293 295 297 299 301 303 304 304 305 305 306 306 306 306 306 306 306 306 306 307 308 308 309 308 308 307 307 307 308 310 311 312 313
Height
5805 5806 5807 5808 5810 5812 5814 5817 5820 5821 5821 5820 5818 5818 5819 5819 5819 5820 5821 5822 5822 5822 5822 5821 5821 5821 5821 5821 5821 5822 5822 5823 5824 5825 5826 5827 5829 5830 5833 5835 5836 5838 5839 5841
5797 5800 5801 5802 5805 5806 5808 5811 5812 5814 5815 5814 5811 5812 5813 5814 5815 5815 5817 5818 5818 5818 5819 5818 5817 5818 5819 5819 5819 5819 5820 5821 5821 5822 5823 5825 5826 5827 5829 5831 5832 5834 5835 5836
5791 5794 5795 5797 5800 5801 5802 5804 5806 5806 5807 5806 5805 5807 5808 5809 5810 5812 5812 5813 5814 5815 5815 5815 5815 5815 5816 5816 5816 5817 5817 5818 5818 5819 5820 5822 5823 5824 5825 5826 5828 5829 5829 5830
5784 5787 5787 5793 5793 5793 5794 5795 5797 5797 5797 5797 5798 5800 5802 5803 5804 5805 5807 5808 5809 5810 5811 5811 5812 5812 5812 5813 5813 5813 5814 5815 5816 5816 5817 5818 5819 5820 5821 5822 5822 5823 5824 5824
5777 5778 5780 5784 5784 5784 5786 5787 5787 5787 5788 5790 5791 5793 5794 5796 5797 5799 5801 5802 5804 5805 5806 5807 5808 5808 5808 5809 5809 5810 5810 5811 5812 5813 5813 5814 5815 5816 5816 5817 5817 5817 5818 5818
5769 5770 5773 5775 5774 5775 5779 5779 5777 5778 5780 5781 5784 5786 5787 5789 5791 5793 5795 5796 5798 5799 5801 5802 5803 5803 5804 5804 5805 5805 5806 5807 5808 5809 5809 5809 5810 5811 5811 5811 5812 5812 5811 5812
5761 5763 5765 5765 5765 5768 5771 5769 5769 5770 5772 5773 5775 5778 5780 5781 5784 5785 5788 5790 5792 5793 5795 5796 5797 5798 5799 5800 5801 5801 5802 5803 5804 5804 5804 5804 5805 5806 5805 5806 5806 5805 5805 5805
5753 5755 5758 5756 5758 5760 5760 5760 5761 5761 5763 5765 5766 5769 5771 5773 5776 5779 5781 5783 5785 5787 5789 5790 5792 5793 5794 5795 5796 5797 5797 5798 5799 5799 5800 5800 5800 5800 5800 5799 5799 5799 5798 5797
5747 5749 5748 5748 5749 5751 5752 5752 5753 5754 5755 5757 5758 5761 5764 5766 5768 5771 5774 5777 5779 5781 5783 5784 5785 5787 5788 5789 5790 5791 5791 5792 5792 5793 5793 5793 5793 5792 5792 5792 5791 5791 5790 5789
5739 5740 5740 5741 5742 5743 5744 5745 5746 5747 5748 5749 5751 5754 5757 5759 5761 5765 5767 5770 5772 5774 5776 5777 5779 5780 5782 5783 5783 5784 5784 5785 5786 5786 5786 5786 5785 5785 5784 5783 5783 5782 5781 5780
5733 5733 5733 5734 5735 5735 5736 5737 5738 5739 5740 5742 5745 5747 5749 5752 5755 5758 5761 5763 5766 5768 5769 5771 5772 5773 5775 5776 5777 5777 5778 5778 5779 5779 5778 5778 5777 5777 5776 5775 5774 5772 5771 5769
5726 5726 5726 5727 5728 5728 5729 5730 5731 5732 5734 5736 5738 5740 5743 5746 5749 5751 5754 5756 5759 5761 5763 5764 5766 5767 5768 5770 5771 5771 5771 5771 5771 5771 5771 5771 5770 5768 5767 5766 5764 5763 5761 5759
5720 5720 5720 5721 5721 5722 5722 5723 5724 5725 5727 5729 5732 5734 5736 5739 5742 5745 5747 5750 5752 5754 5756 5758 5759 5761 5762 5763 5763 5764 5764 5764 5764 5763 5763 5762 5761 5760 5758 5757 5755 5753 5751 5748
5715 5715 5715 5716 5716 5717 5718 5718 5719 5720 5722 5724 5726 5729 5731 5734 5737 5739 5742 5744 5746 5748 5750 5752 5753 5755 5756 5756 5757 5757 5757 5757 5756 5756 5755 5753 5752 5750 5749 5747 5745 5743 5740 5737
5711 5712 5712 5712 5712 5713 5713 5714 5715 5716 5718 5720 5722 5724 5727 5730 5732 5735 5737 5740 5741 5743 5745 5746 5748 5749 5749 5750 5750 5750 5750 5750 5749 5748 5746 5744 5742 5740 5738 5736 5734 5732 5729 5726
5708 5709 5709 5709 5709 5710 5711 5711 5713 5714 5715 5717 5719 5721 5724 5727 5729 5731 5733 5735 5737 5739 5740 5741 5742 5743 5744 5744 5744 5744 5743 5742 5740 5739 5737 5735 5733 5731 5728 5726 5723 5720 5716 5713
5705 5706 5707 5707 5708 5708 5709 5710 5711 5712 5714 5715 5717 5720 5722 5724 5726 5728 5730 5732 5733 5735 5735 5736 5737 5737 5737 5737 5737 5736 5735 5733 5731 5730 5728 5725 5723 5720 5717 5715 5711 5708 5704 5700
5703 5704 5704 5705 5706 5707 5708 5709 5710 5712 5713 5715 5716 5718 5720 5722 5724 5725 5727 5728 5730 5731 5731 5731 5731 5731 5731 5730 5729 5728 5726 5725 5723 5721 5719 5716 5713 5710 5707 5704 5700 5696 5692 5688
5701 5702 5703 5704 5705 5706 5707 5708 5710 5711 5713 5714 5715 5717 5718 5720 5721 5723 5724 5725 5726 5726 5726 5726 5726 5725 5724 5723 5721 5720 5718 5716 5714 5711 5709 5706 5703 5700 5696 5692 5688 5684 5680 5676
5699 5700 5702 5703 5704 5706 5707 5708 5710 5711 5712 5713 5714 5716 5717 5718 5719 5720 5721 5721 5722 5722 5721 5721 5720 5719 5717 5716 5714 5712 5710 5707 5705 5702 5699 5696 5692 5689 5685 5681 5676 5672 5668 5663
5698 5699 5701 5703 5704 5705 5707 5708 5709 5711 5711 5712 5714 5715 5715 5716 5717 5717 5717 5717 5717 5716 5716 5715 5714 5712 5710 5708 5706 5704 5701 5698 5696 5693 5689 5686 5682 5678 5674 5670 5665 5661 5656 5652
5696 5698 5699 5701 5703 5704 5706 5707 5708 5710 5710 5711 5712 5713 5713 5714 5714 5714 5713 5713 5712 5711 5710 5709 5707 5705 5703 5701 5698 5695 5692 5689 5686 5682 5679 5675 5671 5667 5663 5659 5655 5650 5646 5642
5695 5697 5698 5700 5702 5703 5704 5706 5707 5708 5708 5709 5710 5710 5710 5710 5710 5710 5709 5708 5707 5706 5704 5702 5700 5697 5695 5692 5689 5686 5683 5679 5676 5672 5669 5665 5661 5657 5653 5649 5645 5641 5637 5633
5694 5696 5697 5699 5700 5702 5703 5704 5705 5706 5706 5707 5707 5707 5707 5706 5706 5705 5704 5702 5701 5699 5697 5695 5692 5689 5686 5683 5680 5677 5673 5670 5666 5663 5659 5655 5652 5648 5644 5640 5636 5633 5629 5625
5693 5695 5696 5697 5699 5700 5701 5702 5702 5703 5703 5703 5703 5702 5702 5701 5700 5699 5697 5695 5694 5691 5689 5686 5684 5681 5678 5675 5671 5668 5664 5661 5657 5654 5650 5647 5643 5640 5636 5633 5629 5625 5622 5619
5692 5693 5694 5696 5697 5698 5698 5699 5699 5699 5699 5699 5698 5697 5696 5695 5694 5692 5690 5688 5686 5683 5681 5678 5675 5672 5669 5665 5662 5658 5655 5652 5649 5645 5642 5638 5635 5632 5629 5625 5622 5619 5616 5613
5690 5691 5692 5693 5694 5695 5695 5695 5695 5695 5694 5694 5693 5691 5690 5688 5687 5685 5682 5680 5677 5675 5672 5669 5666 5663 5660 5657 5654 5650 5647 5644 5641 5637 5634 5631 5628 5625 5622 5619 5616 5613 5610 5607